Presure
160 166 175 178 199 146 189 206 205 250 196 324 350 374 363 491 474 447 443 430 419 433 446 323 345 358 355 296 286 191 229 212 238 234 224 194 152 169 209 159 162 138 167 147 170 148 157
158 169 186 183 182 169 192 222 188 240 240 306 353 412 340 469 453 437 425 418 428 418 435 302 337 348 336 304 265 171 235 225 232 234 226 125 185 229 149 166 142 154 191 142 135 149 163
190 182 187 192 172 179 203 192 197 226 236 245 361 406 332 487 450 439 422 424 426 421 432 302 322 336 274 264 267 247 172 208 234 235 221 148 210 223 204 140 138 116 131 142 140 145 149
157 182 175 195 167 184 195 192 222 215 232 265 369 388 335 495 461 443 429 432 411 427 419 427 308 332 322 256 287 271 248 223 236 234 214 147 239 150 201 143 190 195 159 172 157 130 152
189 193 169 184 183 179 196 206 222 230 231 241 368 400 340 496 459 446 425 422 426 424 413 421 278 318 317 326 262 293 278 234 243 220 223 203 218 218 175 154 177 206 175 179 178 149 155
183 182 185 180 186 171 189 184 155 218 246 239 273 396 350 476 464 443 429 416 418 418 413 416 293 305 322 322 248 269 260 220 236 202 223 213 205 227 175 130 197 111 123 138 166 154 167
182 186 194 200 196 187 181 178 195 218 228 261 274 362 366 326 452 435 433 417 414 420 420 419 306 297 316 318 354 254 249 230 215 224 230 216 199 221 195 148 197 90 184 137 143 121 132
175 191 175 199 191 180 184 203 185 221 231 251 265 332 417 335 445 436 432 426 409 408 418 423 334 283 308 311 349 247 245 242 242 226 229 220 190 217 208 104 202 76 187 104 165 143 151
173 172 184 181 191 170 171 187 205 210 225 240 259 285 389 352 457 445 433 421 418 406 418 422 387 265 303 309 344 239 277 249 224 238 234 207 110 223 183 222 155 194 91 163 129 174 161
173 180 180 185 182 183 191 182 201 210 217 242 250 264 348 375 326 453 445 430 423 416 416 427 445 266 290 309 344 271 264 230 218 236 229 182 204 197 225 190 161 132 145 179 171 114 161
182 180 180 173 191 179 196 185 199 200 214 232 245 262 271 399 351 396 452 438 432 433 417 432 440 309 257 308 346 288 259 231 220 236 192 211 202 231 208 184 126 186 189 178 92 98 161
168 174 166 169 154 175 194 173 171 186 212 218 235 252 259 339 388 328 480 446 436 432 425 427 461 325 263 310 335 275 258 244 237 202 230 213 90 215 201 201 124 139 131 166 140 169 182
167 169 174 154 192 165 178 211 181 187 205 199 173 239 261 277 370 362 453 460 440 438 427 432 448 351 268 301 333 251 249 267 259 229 238 215 204 73 128 213 122 197 132 149 173 129 164
167 172 187 190 193 194 187 194 212 202 193 218 229 237 252 246 302 379 339 447 446 441 422 413 433 434 270 288 333 255 258 268 262 236 234 228 204 206 198 73 99 125 118 167 98 134 145
178 165 175 186 188 174 200 199 184 191 201 209 213 232 244 254 271 363 381 313 433 435 422 415 425 448 268 287 311 257 265 265 236 238 235 232 206 199 195 206 191 194 191 182 154 174 172
152 182 171 180 194 164 192 176 205 197 185 200 201 228 218 238 266 315 352 443 445 435 407 415 428 431 277 275 296 265 262 261 249 245 227 232 213 198 195 172 209 213 171 122 103 149 170
161 163 175 177 175 162 177 199 196 184 211 203 190 212 231 239 249 266 358 372 345 442 413 404 414 434 453 264 286 275 246 254 239 221 233 233 223 200 193 199 223 220 185 170 213 118 113
166 181 186 183 189 181 198 192 204 205 194 213 204 206 234 229 241 253 329 354 365 310 423 405 406 419 436 261 268 297 263 254 251 220 220 230 223 215 199 191 205 208 190 205 108 186 189
164 173 182 185 183 190 188 178 192 188 203 195 205 198 210 227 235 238 257 351 345 372 325 413 408 396 429 418 256 280 322 243 248 240 224 214 205 222 219 200 193 192 188 218 190 205 195
162 159 180 180 178 186 173 172 189 199 198 207 204 196 236 231 235 242 248 262 352 351 360 384 415 395 407 426 319 253 257 329 255 252 240 220 213 218 220 218 159 139 200 186 187 224 203
174 142 175 189 190 185 157 183 186 199 179 202 193 209 206 214 228 240 252 254 269 346 349 349 445 399 401 404 368 268 255 285 297 278 262 240 220 221 202 215 212 195 192 173 225 222 138
142 178 181 182 193 184 174 147 192 190 200 209 214 189 195 231 222 232 253 249 262 341 337 356 304 404 394 404 379 295 260 256 310 297 282 224 244 231 213 209 215 214 198 199 111 67 221
174 177 172 188 181 188 183 177 198 188 202 199 213 194 225 217 213 218 240 248 251 298 341 336 365 287 382 383 397 396 288 255 262 299 295 275 242 231 227 218 211 218 205 199 141 189 145
141 167 186 168 185 196 167 165 200 185 187 212 207 195 215 198 229 165 236 242 256 259 338 329 329 374 286 432 371 371 376 289 247 262 291 293 228 285 225 225 114 207 211 201 194 200 199
142 165 184 173 188 184 190 183 183 196 184 201 210 213 196 211 219 231 223 254 254 258 341 335 327 331 335 319 459 366 359 368 298 247 255 269 279 242 284 240 218 197 205 211 196 197 199
175 146 192 173 156 176 180 184 189 190 185 167 184 206 215 178 220 219 221 235 249 260 332 338 326 328 346 290 498 422 348 360 351 317 256 242 271 290 293 280 245 225 206 211 208 208 203
170 182 167 212 185 174 178 188 170 199 173 192 207 207 189 205 208 215 243 234 242 251 320 335 330 322 325 350 284 526 435 355 346 356 344 270 241 235 302 274 283 243 224 212 208 216 212
139 206 181 169 189 192 196 152 190 188 197 201 197 198 213 181 212 223 243 238 234 250 330 326 327 324 324 329 340 269 510 411 367 355 349 352 276 244 243 272 257 291 265 234 213 67 75
158 182 158 168 162 180 188 174 184 160 175 194 204 210 220 223 212 217 214 238 236 243 285 326 320 320 317 322 322 338 266 485 417 354 356 342 357 302 244 247 238 254 293 289 251 229 214
Wind_Speed
59 64 69 68 92 62 80 94 97 108 75 111 103 99 80 25 18 19 10 17 25 26 33 61 64 67 73 81 87 83 90 80 86 82 78 68 59 69 69 66 65 50 60 47 48 39 38
61 66 74 71 73 74 86 107 76 107 105 122 107 95 78 37 25 19 16 18 24 29 31 61 64 67 74 81 91 82 89 85 87 85 80 62 74 77 55 70 53 56 66 44 37 40 40
70 69 78 88 68 76 105 89 97 107 109 108 106 92 80 23 21 13 16 17 23 30 28 65 63 70 76 84 91 97 76 80 89 85 80 69 78 81 79 61 52 32 41 45 39 39 41
62 68 70 88 61 93 97 99 110 108 111 128 105 91 82 17 16 15 15 14 21 26 28 32 65 72 82 84 90 96 93 87 91 87 84 68 86 53 82 63 75 72 51 57 51 40 40
75 81 65 82 91 87 104 103 107 110 110 110 105 93 85 17 15 11 9 9 16 18 28 32 67 74 80 80 90 96 102 91 93 88 89 84 82 84 79 64 65 74 57 58 55 49 47
79 81 87 82 97 75 101 100 64 108 118 109 128 99 87 25 12 8 6 7 11 12 24 28 75 74 80 81 87 96 94 85 94 85 93 88 82 88 77 55 70 30 58 55 58 58 54
82 86 89 94 99 97 91 83 110 107 114 127 138 106 91 87 17 14 5 5 7 12 13 22 80 79 81 82 78 98 96 93 93 96 93 87 80 83 75 71 81 9 72 46 52 36 46
80 86 79 97 99 87 99 108 102 105 117 126 134 124 82 88 24 16 9 2 7 8 10 16 71 78 82 83 82 97 98 98 104 96 96 90 74 90 91 27 82 18 78 25 68 56 63
79 74 93 89 99 74 76 104 105 109 114 121 132 141 98 88 22 15 9 3 7 11 9 15 44 75 82 84 86 95 106 100 95 101 92 83 24 90 79 84 71 79 30 75 44 69 68
78 88 91 95 92 93 99 99 112 115 107 126 125 134 113 89 85 18 10 5 6 11 11 13 18 76 79 85 89 103 108 97 93 96 96 76 89 85 91 83 71 56 61 83 78 33 68
83 86 90 86 96 92 103 99 110 109 105 115 126 133 136 94 83 50 15 9 5 9 9 9 13 83 75 82 85 101 101 94 92 97 82 89 91 93 88 86 65 91 93 88 27 28 71
78 84 70 74 60 89 102 81 76 103 108 108 120 129 127 114 88 80 18 13 10 7 3 5 3 85 77 81 85 100 102 99 94 86 94 93 22 96 90 95 60 56 61 77 68 77 72
73 84 86 55 99 77 87 106 95 104 109 103 64 120 134 138 94 82 36 20 14 10 6 8 3 67 79 83 87 94 95 105 105 94 100 97 96 11 48 102 53 98 62 73 81 53 58
79 86 93 97 98 97 97 98 107 106 102 107 114 118 130 106 125 90 77 33 22 17 11 4 3 19 81 88 86 92 96 103 104 99 99 99 96 94 88 10 36 56 49 78 29 60 45
84 83 89 96 95 78 101 101 94 99 105 109 108 115 127 134 133 95 87 73 31 14 11 6 4 7 80 85 87 91 98 101 94 103 101 99 95 94 89 94 96 99 97 86 71 74 74
61 88 87 93 99 72 101 85 107 104 95 106 105 114 105 114 134 119 89 53 28 18 17 12 8 8 77 83 86 94 99 103 100 102 94 96 99 95 95 80 100 107 77 48 50 67 71
73 78 89 91 90 68 91 101 102 93 110 105 95 105 113 118 119 131 88 84 70 19 16 11 8 3 9 82 84 93 89 95 92 86 97 95 96 97 96 92 96 106 82 69 92 65 60
84 91 94 93 97 90 102 101 108 108 100 112 105 101 113 109 116 127 102 83 77 60 17 12 4 3 7 81 83 83 94 92 92 87 88 96 92 98 94 89 95 100 89 96 49 81 80
79 88 95 94 93 101 96 91 104 91 109 99 101 100 102 107 107 101 123 86 76 68 56 9 3 7 4 36 84 85 86 90 92 96 94 92 88 97 101 99 94 91 86 96 82 97 91
77 73 96 97 92 96 82 78 99 104 102 108 104 101 118 110 109 111 118 123 76 69 58 29 1 14 19 34 84 84 85 89 95 98 103 97 92 91 94 95 67 50 84 73 76 99 93
90 48 93 98 95 96 69 88 95 103 78 104 97 108 104 100 108 122 117 119 118 70 61 48 10 19 27 37 59 88 84 86 97 102 102 101 99 101 89 98 99 93 93 79 103 99 44
47 93 94 93 95 95 88 59 98 93 105 113 112 89 96 114 105 116 118 115 120 68 61 55 32 15 28 38 50 81 84 88 95 99 102 93 104 113 98 94 99 100 98 97 34 5 101
94 96 95 93 91 91 91 88 102 92 105 106 116 96 116 109 97 102 115 112 114 93 60 53 49 22 21 31 45 51 82 84 88 95 99 101 100 104 113 104 98 102 96 95 54 88 65
48 91 94 90 92 86 81 74 102 87 93 115 111 99 115 100 120 46 116 108 115 113 59 51 45 39 17 21 39 47 56 86 85 90 93 100 95 108 106 116 31 93 101 100 98 101 97
47 89 94 93 87 84 94 91 90 101 87 112 120 116 101 112 113 121 109 120 117 114 60 50 44 39 24 15 23 53 54 62 92 89 93 96 99 100 112 118 105 90 97 106 103 102 100
88 54 94 89 61 91 91 92 98 99 91 70 89 115 120 73 117 117 107 118 118 117 70 53 43 38 35 12 12 36 43 64 67 88 95 92 94 100 106 112 120 111 106 111 108 108 102
88 92 90 84 89 94 87 91 77 110 75 109 124 125 92 114 111 114 123 118 116 117 72 56 48 40 33 33 10 2 36 63 60 71 79 96 95 95 102 106 113 119 118 116 110 111 110
56 85 90 85 88 89 93 64 99 99 113 116 118 118 127 75 117 123 128 118 111 119 62 53 48 41 35 34 24 12 11 35 65 69 66 72 97 97 98 99 107 110 120 124 117 7 14
81 87 79 91 88 94 92 90 98 78 79 115 133 135 126 128 119 119 112 125 114 116 105 50 45 40 34 33 27 22 16 16 35 58 63 61 64 96 98 100 101 105 107 115 125 122 116
Wind_Direction
338 341 343 344 354 330 350 349 349 356 340 355 346 342 339 321 306 296 270 240 229 233 233 214 208 206 204 203 202 217 217 219 214 212 212 213 220 214 202 213 214 217 218 221 222 225 224
338 342 351 357 354 341 355 346 331 355 352 1 348 345 346 324 318 298 269 249 223 224 226 215 205 202 201 200 203 220 214 214 211 209 208 217 209 197 215 210 219 218 217 221 220 224 223
344 352 356 358 349 353 353 353 350 352 355 358 351 350 351 307 312 285 260 234 224 223 226 210 202 197 200 202 201 206 218 210 207 206 206 213 207 196 202 218 219 217 216 220 221 225 228
346 355 1 354 341 2 355 356 352 353 356 4 356 355 357 315 293 282 257 244 230 224 219 220 198 196 198 203 199 200 205 206 204 203 204 215 197 212 203 218 212 216 216 213 224 226 225
353 359 348 359 1 0 355 355 356 0 358 1 360 360 1 342 320 294 272 254 228 222 215 214 200 196 197 196 200 195 197 203 200 204 201 205 203 198 209 215 211 212 211 212 214 223 221
359 2 1 0 360 358 2 3 343 357 6 2 9 4 5 3 351 335 298 261 221 215 214 215 196 193 194 196 201 195 198 202 200 206 200 201 204 193 209 218 208 221 221 217 213 217 217
2 360 1 360 1 2 4 357 357 359 3 11 13 7 8 8 12 2 354 235 217 209 214 214 192 193 193 194 193 195 197 200 203 204 200 200 204 195 205 215 209 205 211 214 206 225 223
2 1 3 2 2 1 4 359 3 2 7 12 14 12 10 10 10 7 19 221 200 207 212 209 191 194 192 192 191 196 197 199 199 202 199 198 200 196 200 197 203 213 212 226 214 210 222
2 4 3 4 3 0 357 2 2 360 8 11 16 16 13 12 7 4 9 335 224 215 202 208 194 196 192 191 190 199 193 196 202 201 197 196 193 198 205 194 210 201 212 215 226 213 218
2 2 3 3 4 1 1 4 0 357 5 14 15 16 15 15 13 4 356 332 247 233 227 218 207 196 194 195 191 193 194 199 203 198 197 195 201 200 195 201 206 223 208 213 211 198 214
1 1 4 5 3 4 1 5 2 3 2 15 16 18 19 16 16 11 358 348 310 271 250 246 215 193 196 194 192 193 196 200 201 200 200 194 201 195 194 201 227 208 205 211 226 224 214
3 3 3 358 350 4 1 9 356 5 3 9 15 18 18 18 18 15 9 2 3 352 345 259 304 191 195 194 192 195 196 199 200 201 197 195 215 196 201 200 224 204 229 210 227 210 210
357 6 4 349 1 357 6 1 5 4 3 2 6 16 19 19 19 18 20 17 22 33 34 20 30 192 193 193 192 199 199 199 197 200 198 197 203 253 204 197 227 201 229 219 215 220 209
359 1 0 0 360 360 360 2 3 2 3 6 13 16 19 15 18 19 17 22 35 45 76 72 30 181 194 195 193 199 200 201 197 199 201 198 204 204 205 269 212 198 227 216 252 225 212
356 3 2 1 0 1 2 1 4 4 5 5 7 14 16 19 19 19 21 18 25 49 54 49 53 157 195 196 195 198 199 201 202 199 201 199 202 206 207 209 210 207 211 212 213 211 206
352 357 2 2 1 357 360 360 4 3 6 6 6 12 13 16 18 18 20 23 29 30 32 34 23 165 195 199 197 199 200 200 198 200 203 201 199 207 210 212 211 204 209 230 241 222 208
359 359 359 359 359 359 358 1 1 3 4 4 5 7 13 14 19 18 19 20 19 28 27 29 30 103 175 201 199 201 205 202 201 204 203 205 202 208 212 212 208 205 219 215 208 234 235
355 353 354 357 357 358 360 2 2 2 4 5 5 7 12 13 16 19 18 20 20 19 25 26 26 78 178 203 203 202 205 205 202 207 206 207 206 207 213 214 211 213 217 210 229 213 214
353 353 355 357 357 357 359 358 1 1 3 4 3 6 5 10 14 16 18 18 19 19 20 25 56 178 214 191 207 205 202 208 207 207 207 211 208 208 210 214 215 215 219 216 214 210 211
355 347 354 355 354 357 354 356 359 360 1 4 3 7 9 9 11 12 14 17 18 19 18 20 308 201 181 177 202 211 206 204 209 209 209 209 214 213 212 214 218 219 220 221 220 214 214
350 339 353 351 351 354 350 357 357 358 360 2 4 4 4 6 10 9 11 13 14 17 19 17 358 207 189 183 195 207 210 207 208 212 211 211 213 216 214 214 216 216 217 216 219 219 239
340 348 349 350 351 352 353 344 358 358 359 2 1 5 4 7 7 7 9 9 10 15 14 17 14 253 203 193 200 209 212 212 208 212 213 213 212 213 217 216 217 217 218 218 222 277 218
346 348 350 347 348 350 349 352 358 355 359 0 1 1 3 3 4 5 8 9 10 10 15 14 15 8 239 213 199 202 214 217 215 212 214 216 215 215 216 220 218 218 219 221 224 219 215
337 347 344 349 344 348 345 350 357 355 355 360 359 359 0 1 3 356 4 7 8 8 10 11 11 10 1 248 234 214 204 217 220 218 216 217 218 217 218 220 228 218 220 221 221 221 219
338 343 341 344 345 347 350 349 352 356 355 359 358 358 358 358 0 1 1 3 5 5 8 8 11 7 359 345 238 228 224 214 218 221 222 220 219 219 220 220 224 226 224 222 225 224 222
337 341 338 339 347 341 343 347 352 354 353 347 356 356 356 357 359 359 358 360 1 2 2 4 7 8 7 325 360 222 226 226 224 220 221 224 222 222 222 222 223 224 227 229 227 225 225
333 334 339 346 335 338 347 347 344 354 348 354 355 356 356 355 356 357 358 359 360 360 360 357 1 3 7 6 304 241 226 228 231 231 226 222 223 224 226 225 223 224 226 228 231 229 226
330 334 336 338 334 343 352 336 349 348 354 354 355 353 352 353 354 356 358 357 359 358 358 356 355 359 1 4 1 272 228 234 229 233 235 233 222 223 225 226 226 228 228 228 229 263 268
331 332 336 333 336 334 344 337 344 347 345 352 354 352 352 351 353 353 353 356 356 357 356 353 352 351 358 0 357 354 260 246 238 233 232 236 238 228 225 227 227 227 232 232 231 230 233